User: anonymous   Login
Location: Houston
(29.7631°N, 95.3631°W)
Time: 06:28:32
(UTC-05:00)
Language:

QB50P2 - Orbit

View from above orbital plane
View from above orbital plane
View from above satellite
View from above satellite

Ground track
Ground track

The orbit data is extracted from the following two-line orbital elements,

1 40032U 14033Y   21269.52174898  .00000697  00000-0  79956-4 0  9996
2 40032  97.9167 196.7586 0011119 196.8008 163.2842 14.89047846394336
Epoch (UTC): 26 September 2021 12:31:19
Eccentricity: 0.0011119
inclination: 97.9167°
perigee height: 593 km
apogee height: 608 km
right ascension of ascending node: 196.7586°
argument of perigee: 196.8008°
revolutions per day: 14.89047846
mean anomaly at epoch: 163.2842°
orbit number at epoch: 39433

The dashed part of the orbit path shows where the satellite is in the earth's shadow,  

DLR